Regional Weather Roundup
Issued by NWS Portland, ME

Current Version | Previous Version | Text Only | Print | Product List | Glossary Off
Versions: 1 2 3 4 5 6 7 8 9 10 11 12 13 14 15 16 17 18 19 20 21 22 23 24 25 26 27 28 29 30 31 32 33 34 35 36 37 38 39 40 41 42 43 44 45 46 47 48 49 50
000 ASUS41 KGYX 170205 RWRGYX WEATHER ROUNDUP FOR MAINE AND NEW HAMPSHIRE NATIONAL WEATHER SERVICE GRAY ME 900 PM EST SAT DEC 16 2017 MEZ002-005-006-010-012-015-018-020-021-024-026-027-029-170300- MAINE CITY SKY/WX TMP DP RH WIND PRES REMARKS PORTLAND CLEAR 22 7 52 NW10 30.07R WCI 11 SANFORD CLEAR 21 9 59 W8G18 30.07R BAR HARBOR CLEAR 17 13 84 NW5 30.01R WISCASSET CLEAR 20 10 65 VRB5 30.05R ROCKLAND CLEAR 21 10 62 NW7 30.02R FRYEBURG CLEAR 16 6 65 W3 30.05R LEWISTONAUBURN CLEAR 18 7 62 W8 30.05R AUGUSTA CLEAR 19 6 57 NW8 30.02R WATERVILLE CLEAR 16 8 71 W6 29.98R BANGOR CLEAR 16 13 88 W7 30.00R GREENVILLE N/A 11 9 92 NW7 29.90R MILLINOCKET CLEAR 15 5 64 W12G23 29.97R WCI 2 HOULTON CLEAR 10 2 69 NW7 29.92R PRESQUE ISLE CLEAR 6 0 76 NW7 29.93R FRENCHVILLE CLEAR 1 -5 75 NW15 29.88R WCI -18 CARIBOU CLEAR 7 -4 60 NW16G24 29.90R WCI -11 $$ NHZ002-005-008-009-011-012-014-170300- NEW HAMPSHIRE CITY SKY/WX TMP DP RH WIND PRES REMARKS PORTSMOUTH PTCLDY 23 14 70 W6 30.08R ROCHESTER CLEAR 21 11 65 W7 30.06R NASHUA CLEAR 17 14 88 CALM 30.11R MANCHESTER CLEAR 23 15 71 CALM 30.09R CONCORD CLEAR 21 8 57 NW12 30.10R WCI 9 LACONIA CLEAR 17 10 74 W8 30.08R PLYMOUTH FAIR 17 9 69 SW6 30.10R BERLIN CLOUDY 12 6 77 S5 30.03R WHITEFIELD CLOUDY 14 8 77 SW5 30.07R JAFFREY CLEAR 21 13 71 VRB6 30.05R KEENE CLEAR 17 13 84 CALM 30.11R LEBANON CLEAR 7 4 87 CALM 30.11R MT WASHINGTON BLWGSNOW -6 -6 100 NW45 N/A VSB 1/16WCI -38 $$ VTZ005-007-008-170300- VERMONT CITY SKY/WX TMP DP RH WIND PRES REMARKS ST JOHNSBURY N/A 9 7 92 MISG 30.09R MONTPELIER LGT SNOW 13 9 84 NW6 30.11R FOG BURLINGTON MOCLDY 16 6 65 N5 30.17R $$ MAZ007-012-024-CTZ003-RIZ002-NYZ038-NYZ072-170300- SOUTHERN NEW ENGLAND AND NY CITY SKY/WX TMP DP RH WIND PRES REMARKS BOSTON PTCLDY 28 16 60 W8 30.12R WORCESTER CLEAR 20 10 65 NW10 30.07R WCI 9 NANTUCKET PTCLDY 32 19 58 NW16 30.09R PROVIDENCE CLEAR 28 18 66 NW9 30.13R HARTFORD PTCLDY 26 15 63 NW9 30.16R ALBANY PTCLDY 21 13 71 W5 30.17R NEW YORK CITY CLOUDY 38 26 62 NW10 30.15R $$ ANZ081-ANZ082-ANZ150-NHZ014-MEZ023>029-170300- COASTAL MARINE OBSERVATIONS STATION/POSITION TIME TEMP WIND PRES WAVE AIR SEA DIR/SP/G HT/PER (UTC) (F) (DEG/KT/KT) (MB) (FT/S) MOUNT DESERT ROC 0100 27 300/ 20/ 25 1014.9R MATINICUS ROCK 0100 29 330/ 28/ 30 1014.7R ISLE OF SHOALS 0100 28 290/ 19/ 22 1017.5R JEFFREYS LEDGE 0136 47 N/A 6/ 5 GEORGES BANK BUO 0050 41 50 1012.7 13/ 8 $$ .............KEY.............. WCI - WIND CHILL TC - TEMPERATURE IN CELSIUS VSB - VISIBILITY IN MILES HX - HEAT INDEX FAIR- INDICATES FEW OR NO CLOUDS BELOW 12,000 FT, WITH NO SIGNIFICANT WEATHER AND/OR OBSTRUCTIONS TO VISIBILITY.

USA.gov is the U.S. government's official web portal to all federal, state and local government web resources and services.